Regional Weather Roundup
Issued by NWS

Home | Current Version | Previous Version | Text Only | Print | Product List | Glossary On
Versions: 1 2 3 4 5 6 7 8 9 10 11 12 13 14 15 16 17 18 19 20 21 22 23 24 25 26 27 28 29 30 31 32 33 34 35 36 37 38 39 40 41 42 43 44 45 46 47 48 49 50
000
ASUS43 KDMX 210207
RWRIA

WEATHER ROUNDUP FOR IOWA
NATIONAL WEATHER SERVICE DES MOINES IA
800 PM CST THU NOV 20 2014

NOTE: "FAIR" INDICATES FEW OR NO CLOUDS BELOW 12,000 FEET WITH NO
SIGNIFICANT WEATHER AND/OR OBSTRUCTIONS TO VISIBILITY.

* - THESE STATIONS ARE NOT NWS STATIONS...THUS NOT UNDER NWS
QUALITY CONTROL.  THEY ALSO DO NOT REPORT WEATHER SUCH
AS PRECIPITATION OR FOG.

IAZ001>003-012>014-020>022-031>034-043>046-210300-
   NORTHWEST IOWA

CITY           SKY/WX    TMP DP  RH WIND       PRES   REMARKS
CARROLL *      CLEAR      9   5  85 CALM      30.24R
CHEROKEE *     PTCLDY    10   7  85 CALM      30.22S
DENISON *      CLEAR     12   9  85 CALM      30.22R
LE MARS *      CLEAR     10   7  85 CALM      30.23R
ORANGE CITY *  CLEAR     14   9  79 CALM      30.20R
SHELDON *      CLEAR      3  -2  78 E3        30.19S
SIOUX CITY     MOCLDY    18  10  71 E7        30.23R WCI   9
SPENCER        PTCLDY     3   1  91 CALM      30.21S
STORM LAKE *   CLEAR     12   9  85 CALM      30.21S
$$

IAZ055>058-069>071-079>083-090>094-210300-
   SOUTHWEST IOWA

CITY           SKY/WX    TMP DP  RH WIND       PRES   REMARKS
ATLANTIC *     CLEAR     12   9  85 N6        30.24R WCI   3
AUDUBON *      CLEAR      9   3  78 CALM      30.23S
CLARINDA *     CLEAR     16  14  93 CALM      30.27R
COUNCIL BLFS * CLEAR     19  16  86 E6        30.22R WCI  11
CRESTON *      CLEAR     18  12  79 CALM      30.24R
HARLAN  *      CLEAR     12  10  92 CALM      30.27R
LAMONI         PTCLDY    21  14  74 CALM      30.24R
RED OAK *      CLEAR     14  12  92 CALM      30.25R
SHENANDOAH *   CLEAR     19  16  86 NE3       30.26R
$$

IAZ047>049-059>061-072>074-084-210300-
   CENTRAL IOWA

CITY           SKY/WX    TMP DP  RH WIND       PRES   REMARKS
AMES           PTCLDY    12   6  77 CALM      30.26R
ANKENY *       CLEAR     14  10  85 CALM      30.28R
CHARITON *     PTCLDY    21  10  63 NE5       30.26R WCI  15
DES MOINES     CLEAR     21  11  65 N5        30.27R WCI  15
GRINNELL*      PTCLDY    14   9  79 N6        30.26R WCI   5
KNOXVILLE *    CLEAR     19   9  63 N5        30.26R WCI  13
MARSHALLTOWN   PTCLDY     9   5  84 W5        30.25R WCI   1
PELLA *        CLEAR     18  10  73 CALM      30.29R
PERRY *          N/A     14  10  85 CALM      30.26R
$$

IAZ004>006-015-016-023>025-035-036-210300-
   NORTH CENTRAL IOWA

CITY           SKY/WX    TMP DP  RH WIND       PRES   REMARKS
ALGONA *       CLEAR      9   5  85 SW3       30.23S
CLARION *      CLEAR      9   7  92 CALM      30.24S
ESTHERVILLE    PTCLDY     3   0  87 SW5       30.21R WCI  -6
FORT DODGE *   PTCLDY     9   7  92 CALM      30.25R
MASON CITY     PTCLDY     4   1  88 W5        30.24R WCI  -5
FOREST CITY *  CLEAR      5   3  92 CALM      30.22R
IOWA FALLS *     N/A      7   1  78 NW5       30.25R WCI  -2
$$

IAZ007>011-017>019-026>030-037>042-050>054-066-210300-
   NORTHEAST IOWA

CITY           SKY/WX    TMP DP  RH WIND       PRES   REMARKS
CEDAR RAPIDS   PTCLDY    12   7  80 W7        30.26R WCI   1
CHARLES CITY * CLEAR      9   3  78 NW5       30.24R WCI   0
CLINTON *      CLEAR     10   7  85 NW7       30.28R WCI   0
DECORAH *      CLEAR     10   3  72 NW5       30.22R WCI   2
DUBUQUE          N/A     13   4  67 NW9       30.23R WCI   1
MONTICELLO *   PTCLDY    10   5  79 CALM      30.26R
OELWEIN *      CLEAR     10   3  72 NW6       30.25R WCI   1
WATERLOO       MOCLDY     8   2  76 NW3       30.26R
$$

IAZ064-065-067-068-078-210300-
   EAST CENTRAL IOWA

CITY           SKY/WX    TMP DP  RH WIND       PRES   REMARKS
DAVENPORT      CLEAR     14   6  70 NW8       30.27R WCI   3
IOWA CITY      PTCLDY    16   9  74 NW5       30.30R WCI   9
MT. PLEASANT * CLEAR     18  10  73 N5        30.28R WCI  11
MUSCATINE *    CLEAR     19  10  68 CALM      30.30R
QUAD CITIES    CLEAR     20   8  60 NW7       30.28R WCI  11
$$

IAZ062-063-075>077-085>089-095>099-210300-
   SOUTHEAST IOWA

CITY           SKY/WX    TMP DP  RH WIND       PRES   REMARKS
BURLINGTON     CLEAR     22  10  60 N5        30.28R WCI  16
FAIRFIELD *    CLEAR     16   7  67 N5        30.28R WCI   9
FORT MADISON * CLEAR     23  12  63 CALM      30.29R
KEOKUK *       CLEAR     25  12  58 N5        30.27S WCI  19
OSKALOOSA *      N/A     18  10  73 N3        30.28R
CENTERVILLE *  CLEAR      9   7  92 CALM      30.27R
OTTUMWA        PTCLDY    19   9  65 N6        30.28R WCI  11
WASHINGTON *   CLEAR     19  12  73 CALM      30.28R
$$

ABBREVIATIONS USED IN REMARKS
   TC - TEMPERATURES IN CELSIUS
  WCI - WIND CHILL INDEX
   HX - HEAT INDEX
  VSB - VISIBILITY
$$




USA.gov is the U.S. government's official web portal to all federal, state and local government web resources and services.